Fort Morgan, CO

4:56 AM MST on February 22, 2017 (GMT -0700)
Fort Morgan

Weather History for KFMM - October, 2012

Change the Weather History Date:

Saturday, October 27, 2012

  Actual Average (KAKO) Record (KAKO)
Temperature  
Mean Temperature 36 °F -  
Max Temperature 48 °F 59 °F 81 °F (1983)
Min Temperature 24 °F 32 °F 21 °F (1954)
Degree Days  
Heating Degree Days 29    
Moisture  
Dew Point 28 °F    
Average Humidity 77    
Maximum Humidity 96    
Minimum Humidity 46    
Precipitation  
Precipitation 0.00 in - - ()
Sea Level Pressure  
Sea Level Pressure 30.13 in    
Wind  
Wind Speed 5 mph ()    
Max Wind Speed 15 mph    
Max Gust Speed -    
Visibility 9.1 miles    
Events      
Averages and records for this station are not official NWS values.
T = Trace of Precipitation, MM = Missing Value Source: Averaged Metar Reports

Daily Weather History Graph

Daily Weather History Graph

Search for Another Location

Airport or City:

Trip Planner

Search our weather history database for the weather conditions in past years. The results will help you decide how hot, cold, wet, or windy it might be!

Date:

Astronomy

Oct. 27, 2012 Rise Set
Actual Time 7:19 AM MDT 5:57 PM MDT
Civil Twilight 6:51 AM MDT 6:25 PM MDT
Nautical Twilight 6:19 AM MDT 6:57 PM MDT
Astronomical Twilight 5:48 AM MDT 7:29 PM MDT
Moon 4:45 PM MDT (10/27) 5:16 AM MDT (10/27)
Length of Visible Light 11h 33m
Length of Day
10h 37m
Waxing Gibbous, 96% of the Moon is Illuminated
Oct 27
Waxing Gibbous
Oct 29
Full
Nov 6
Last Quarter
Nov 13
New
Nov 20
First Quarter

Hourly Weather History & Observations

Time (MDT) Temp. Windchill Dew Point Humidity Pressure Visibility Wind Dir Wind Speed Gust Speed Precip Events Conditions
12:15 AM 25.3 °F 19.7 °F 23.9 °F 94% 30.19 in 10.0 mi East 4.6 mph - N/A   Clear
12:35 AM 25.3 °F 19.7 °F 23.9 °F 94% 30.18 in 10.0 mi East 4.6 mph - N/A   Clear
12:55 AM 26.1 °F 21.9 °F 24.6 °F 94% 30.18 in 10.0 mi East 3.5 mph - N/A   Scattered Clouds
1:15 AM 27.7 °F 20.4 °F 26.2 °F 94% 30.18 in 10.0 mi SE 6.9 mph - N/A   Overcast
1:35 AM 28.8 °F 21.7 °F 26.6 °F 92% 30.16 in 10.0 mi SE 6.9 mph - N/A   Overcast
1:55 AM 29.7 °F 18.6 °F 27.5 °F 92% 30.14 in 10.0 mi SSE 15.0 mph - N/A   Overcast
2:15 AM 28.9 °F 21.1 °F 26.6 °F 91% 30.15 in 10.0 mi South 8.1 mph - N/A   Scattered Clouds
2:35 AM 29.1 °F 24.1 °F 27.1 °F 92% 30.17 in 10.0 mi WNW 4.6 mph - N/A   Overcast
2:55 AM 30.0 °F 23.2 °F 27.3 °F 90% 30.17 in 10.0 mi SSW 6.9 mph - N/A   Overcast
3:15 AM 30.2 °F 26.7 °F 27.3 °F 89% 30.16 in 10.0 mi SSE 3.5 mph - N/A   Overcast
3:35 AM 30.0 °F 25.2 °F 27.5 °F 90% 30.16 in 10.0 mi South 4.6 mph - N/A   Overcast
3:55 AM 29.8 °F - 27.9 °F 92% 30.15 in 10.0 mi Calm Calm - N/A   Overcast
4:15 AM 30.2 °F 25.4 °F 27.9 °F 91% 30.13 in 10.0 mi SSE 4.6 mph - N/A   Overcast
4:35 AM 29.1 °F 24.1 °F 26.6 °F 90% 30.13 in 10.0 mi SE 4.6 mph - N/A   Mostly Cloudy
5:15 AM 28.9 °F 25.2 °F 26.6 °F 91% 30.12 in 10.0 mi South 3.5 mph - N/A   Overcast
5:35 AM 28.8 °F 23.7 °F 26.6 °F 92% 30.13 in 10.0 mi South 4.6 mph - N/A   Overcast
5:55 AM 28.4 °F 22.2 °F 26.6 °F 93% 30.13 in 10.0 mi SSW 5.8 mph - N/A   Overcast
6:15 AM 28.9 °F 19.8 °F 27.0 °F 92% 30.14 in 10.0 mi West 10.4 mph - N/A   Overcast
6:55 AM 26.2 °F 17.1 °F 24.8 °F 94% 30.13 in 7.0 mi West 9.2 mph - N/A   Scattered Clouds
7:15 AM 25.7 °F 18.0 °F 24.1 °F 94% 30.13 in 7.0 mi West 6.9 mph - N/A   Scattered Clouds
7:35 AM 24.8 °F 16.1 °F 23.4 °F 94% 30.13 in 5.0 mi WSW 8.1 mph - N/A   Scattered Clouds
7:55 AM 25.5 °F 16.9 °F 24.1 °F 94% 30.13 in 4.0 mi West 8.1 mph - N/A   Mostly Cloudy
8:15 AM 26.6 °F 19.1 °F 25.0 °F 94% 30.13 in 4.0 mi West 6.9 mph - N/A   Overcast
8:35 AM 27.0 °F 19.5 °F 25.7 °F 95% 30.15 in 4.0 mi West 6.9 mph - N/A   Overcast
8:55 AM 27.5 °F 18.6 °F 26.4 °F 96% 30.14 in 3.0 mi WSW 9.2 mph - N/A   Overcast
9:15 AM 28.0 °F 20.0 °F 27.0 °F 96% 30.14 in 2.5 mi WSW 8.1 mph - N/A   Overcast
9:35 AM 30.2 °F 23.4 °F 28.6 °F 94% 30.14 in 3.0 mi WNW 6.9 mph - N/A   Overcast
9:55 AM 32.5 °F 27.1 °F 30.2 °F 91% 30.13 in 5.0 mi West 5.8 mph - N/A   Mostly Cloudy
10:15 AM 32.0 °F 25.6 °F 29.8 °F 92% 30.13 in 7.0 mi West 6.9 mph - N/A   Overcast
10:35 AM 32.5 °F 25.5 °F 30.2 °F 91% 30.13 in 7.0 mi WSW 8.1 mph - N/A   Overcast
11:15 AM 35.8 °F 30.9 °F 32.0 °F 86% 30.12 in 7.0 mi SW 5.8 mph - N/A   Scattered Clouds
11:35 AM 37.2 °F 34.7 °F 32.4 °F 83% 30.12 in 10.0 mi WSW 3.5 mph - N/A   Clear
11:55 AM 39.6 °F 35.4 °F 32.0 °F 74% 30.12 in 10.0 mi SW 5.8 mph - N/A   Clear
12:15 PM 41.4 °F - 31.8 °F 69% 30.11 in 10.0 mi Calm Calm - N/A   Clear
12:35 PM 43.0 °F 41.3 °F 32.4 °F 66% 30.11 in 10.0 mi SW 3.5 mph - N/A   Clear
12:55 PM 44.4 °F - 30.4 °F 58% 30.11 in 10.0 mi Calm Calm - N/A   Clear
1:15 PM 45.3 °F - 27.9 °F 51% 30.10 in 10.0 mi Calm Calm - N/A   Clear
1:35 PM 46.8 °F - 30.0 °F 52% 30.09 in 10.0 mi SSE 4.6 mph - N/A   Clear
1:55 PM 47.1 °F - 29.8 °F 51% 30.09 in 10.0 mi SSW 3.5 mph - N/A   Clear
2:15 PM 46.9 °F - 29.5 °F 51% 30.09 in 10.0 mi Calm Calm - N/A   Clear
2:35 PM 47.8 °F - 30.4 °F 51% 30.09 in 10.0 mi Calm Calm - N/A   Scattered Clouds
2:55 PM 48.0 °F - 31.1 °F 52% 30.09 in 10.0 mi SE 3.5 mph - N/A   Scattered Clouds
3:15 PM 46.9 °F - 31.3 °F 55% 30.09 in 10.0 mi SE 5.8 mph - N/A   Scattered Clouds
3:35 PM 47.1 °F - 30.6 °F 53% 30.09 in 10.0 mi South 6.9 mph - N/A   Clear
3:55 PM 46.2 °F 42.2 °F 29.1 °F 51% 30.09 in 10.0 mi South 8.1 mph - N/A   Mostly Cloudy
4:15 PM 45.7 °F 42.0 °F 27.9 °F 50% 30.09 in 10.0 mi South 6.9 mph - N/A   Scattered Clouds
4:35 PM 46.6 °F - 26.6 °F 46% 30.09 in 10.0 mi South 6.9 mph - N/A   Mostly Cloudy
4:55 PM 45.3 °F 40.6 °F 26.1 °F 47% 30.09 in 10.0 mi South 9.2 mph - N/A   Mostly Cloudy
5:15 PM 43.2 °F 39.7 °F 25.5 °F 50% 30.10 in 10.0 mi SSE 5.8 mph - N/A   Clear
5:35 PM 41.0 °F 38.0 °F 26.8 °F 57% 30.11 in 10.0 mi South 4.6 mph - N/A   Clear
5:55 PM 39.9 °F - 27.3 °F 61% 30.11 in 10.0 mi Calm Calm - N/A   Clear
6:15 PM 38.1 °F - 28.0 °F 67% 30.11 in 10.0 mi Calm Calm - N/A   Clear
6:35 PM 37.2 °F - 28.4 °F 70% 30.12 in 10.0 mi Calm Calm - N/A   Clear
6:55 PM 35.8 °F 30.1 °F 28.2 °F 74% 30.11 in 10.0 mi SSE 6.9 mph - N/A   Clear
7:15 PM 35.8 °F 31.9 °F 27.5 °F 72% 30.12 in 10.0 mi SSE 4.6 mph - N/A   Clear
7:35 PM 35.6 °F 31.7 °F 26.6 °F 70% 30.13 in 10.0 mi South 4.6 mph - N/A   Clear
7:55 PM 36.0 °F 33.3 °F 26.2 °F 68% 30.13 in 10.0 mi SSE 3.5 mph - N/A   Clear
8:15 PM 33.8 °F 30.8 °F 26.4 °F 74% 30.14 in 10.0 mi WSW 3.5 mph - N/A   Clear
8:55 PM 33.1 °F 28.7 °F 26.2 °F 76% 30.15 in 10.0 mi SSW 4.6 mph - N/A   Scattered Clouds
9:15 PM 33.1 °F 30.0 °F 26.4 °F 77% 30.15 in 10.0 mi WSW 3.5 mph - N/A   Scattered Clouds
9:35 PM 32.9 °F 27.5 °F 26.4 °F 77% 30.15 in 10.0 mi SSW 5.8 mph - N/A   Clear
9:55 PM 33.8 °F 30.8 °F 26.6 °F 75% 30.15 in 10.0 mi SSE 3.5 mph - N/A   Mostly Cloudy
10:15 PM 35.6 °F 29.9 °F 27.5 °F 72% 30.15 in 10.0 mi South 6.9 mph - N/A   Overcast
10:35 PM 34.7 °F 31.8 °F 27.5 °F 75% 30.15 in 10.0 mi SSW 3.5 mph - N/A   Overcast
10:55 PM 34.0 °F 31.0 °F 27.3 °F 77% 30.14 in 10.0 mi WSW 3.5 mph - N/A   Overcast
11:15 PM 33.1 °F 30.0 °F 27.3 °F 79% 30.14 in 10.0 mi SW 3.5 mph - N/A   Overcast
11:35 PM 33.4 °F 30.4 °F 27.0 °F 77% 30.14 in 10.0 mi South 3.5 mph - N/A   Overcast
11:55 PM 33.4 °F - 26.6 °F 76% 30.14 in 10.0 mi Calm Calm - N/A   Mostly Cloudy